[[{"header":{"parameterUnit":"m.s-1","parameterCategory":1,"la1":30.2991,"la2":30.254,"lo1":-89.0895,"lo2":-89.0444,"dy":0.0017,"dx":0.0017,"nx":28,"ny":28,"refTime":"2024-09-30T09:00:00:Z","depth":0,"parameterNumber":2,"parameterNumberName":"U-component_of_WINDS"},"data":[0,0,0,0,0,0,0,0,0,0,0,0,0,0,0,0,0,0,0,0,0,0,0,0,0,0,0,0,0,0,0,0,0,0,0,0,0,0,0,0,0,0,0,0,0,0,0,0,0,0,0,0,0,0,0,0,0,0,0.4543,0.4544,0,0.4648,0.4649,0.465,0.4699,0.4699,0.4699,0.4699,0.481,0.4813,0.4816,0,0,0,0,0,0,0,0,0,0,0,0,0,0.4388,0.439,0.4542,0.4544,0.4545,0.4647,0.4649,0.465,0.4699,0.4699,0.4699,0.4698,0.4809,0.4813,0.4817,0,0,0,0,0,0,0,0,0,0,0,0,0,0.447,0.4391,0.4542,0.4582,0.4586,0.4647,0.4649,0.4651,0.4699,0.4699,0.4699,0.4698,0.4808,0.4813,0.4817,0.4848,0,0,0.4831,0.4833,0,0,0,0,0,0,0,0,0.4466,0.4476,0.4574,0.4579,0.4584,0.466,0.4635,0.4717,0.4699,0.4656,0.4699,0.4698,0.4761,0.4769,0.4789,0.4854,0.4859,0.4832,0.4835,0.4837,0.4838,0,0,0,0,0,0,0,0.446,0.4472,0.4584,0.4576,0.4582,0.4595,0.4607,0.4651,0.4708,0.466,0.4664,0.4675,0.4763,0.4785,0.4792,0.486,0.4832,0.4836,0.4839,0.484,0.4956,0.4956,0,0,0,0,0,0,0.4447,0.4467,0.4581,0.4587,0.4523,0.4598,0.4611,0.4636,0.4708,0.4718,0.4675,0.4677,0.4777,0.4787,0.4797,0.4838,0.4836,0.4841,0.4843,0.4956,0.4956,0.4956,0,0,0,0,0,0,0.4444,0.4457,0.4577,0.4528,0.4544,0.4601,0.4628,0.4638,0.4659,0.4719,0.473,0.4686,0.4777,0.479,0.4835,0.4843,0.4843,0.4847,0.4955,0.4956,0.4956,0.4921,0,0,0,0,0,0,0.4439,0.4455,0.4467,0.4528,0.4547,0.4612,0.4629,0.464,0.4667,0.467,0.4733,0.4743,0.4778,0.4828,0.484,0.4849,0.4851,0.4955,0.4956,0.4956,0.4922,0.492,0.4919,0,0,0,0,0,0.4433,0.4453,0.4467,0.4481,0.4562,0.4612,0.4623,0.4662,0.4667,0.468,0.4718,0.4741,0.484,0.4832,0.4846,0.4857,0.4955,0.4955,0.4956,0.4923,0.4921,0.4919,0,0,0,0,0,0,0.4393,0.4462,0.4478,0.4518,0.4559,0.462,0.4637,0.4659,0.47,0.4702,0.475,0.4764,0.4804,0.4835,0.4825,0.4891,0.4899,0.4903,0.4869,0.4868,0.4867,0.4859,0.4854,0,0,0,0,0,0.4389,0.4422,0.4482,0.4512,0.4531,0.458,0.4604,0.463,0.4675,0.4693,0.4735,0.4778,0.4819,0.4845,0.4886,0.4926,0.4941,0.4941,0.4939,0.4938,0.494,0.4965,0.4965,0.4959,0.4959,0.4959,0,0,0.4381,0.4422,0.4441,0.4505,0.4539,0.4574,0.4595,0.4631,0.4658,0.4699,0.4743,0.4776,0.4828,0.487,0.4891,0.4897,0.4945,0.4939,0.4937,0.4941,0.4965,0.4966,0.4966,0.4959,0.4959,0.4959,0,0,0.4383,0.4418,0.4447,0.4481,0.4532,0.4565,0.4572,0.463,0.4653,0.4698,0.4729,0.4763,0.4832,0.4868,0.4895,0.4911,0.4934,0.4924,0.4916,0.4939,0.494,0.494,0.4947,0.4948,0.4926,0.4926,0.4926,0,0.4367,0.442,0.446,0.4494,0.4521,0.4558,0.4589,0.462,0.4683,0.4702,0.4707,0.4795,0.4832,0.4884,0.4888,0.4908,0.4919,0.4917,0.4936,0.4937,0.4939,0.4945,0.4947,0.4924,0.4924,0.4925,0.4925,0,0.4398,0.4434,0.4451,0.4509,0.4539,0.4571,0.4617,0.4642,0.4666,0.4698,0.4744,0.479,0.4841,0.4856,0.488,0.4911,0.4913,0.4927,0.4936,0.4937,0.4944,0.4947,0.4922,0.4922,0.4923,0.4923,0,0,0.4379,0.4458,0.4463,0.449,0.455,0.458,0.4614,0.4662,0.4683,0.4725,0.4756,0.4814,0.4826,0.4857,0.4886,0.4906,0.4916,0.4917,0.4919,0.4916,0.4954,0.4944,0.4946,0.4931,0.4932,0.4933,0.495,0,0.439,0.4452,0.4488,0.4536,0.457,0.4606,0.4636,0.4676,0.4708,0.4743,0.4778,0.4818,0.4832,0.485,0.4872,0.491,0.4925,0.491,0.4962,0.4963,0.4948,0.495,0.4939,0.4953,0.4953,0.4953,0.4954,0,0.4412,0.4452,0.4502,0.4557,0.4573,0.46,0.4647,0.468,0.4727,0.4748,0.4782,0.4811,0.485,0.4855,0.491,0.4899,0.4923,0.4945,0.4946,0.4953,0.4959,0.4957,0.4959,0.4961,0.4959,0.4958,0.4958,0,0.4393,0.446,0.4498,0.452,0.4586,0.4604,0.4632,0.4679,0.4706,0.4748,0.4766,0.4812,0.4838,0.4874,0.4915,0.4915,0.4966,0.4975,0.4986,0.4985,0.4995,0.4994,0.5001,0.5009,0.5009,0.5009,0.5009,0,0.4403,0.4432,0.4491,0.4515,0.4549,0.4592,0.4625,0.4657,0.4698,0.4729,0.4763,0.4793,0.4844,0.488,0.4912,0.4953,0.4965,0.4984,0.4992,0.4981,0.4979,0.4998,0.4998,0.501,0.501,0.501,0.501,0,0.4388,0.4428,0.4473,0.4531,0.4547,0.457,0.462,0.4645,0.4678,0.4718,0.473,0.4782,0.4826,0.487,0.493,0.4951,0.4992,0.5003,0.4975,0.498,0.4988,0.4987,0.5008,0.5014,0.5017,0.5017,0.5017,0,0.4391,0.4415,0.4475,0.4498,0.4525,0.4562,0.4589,0.4632,0.4659,0.4714,0.4733,0.4779,0.4819,0.4888,0.4932,0.4978,0.499,0.4995,0.4998,0.4986,0.4991,0.4989,0.4992,0.4993,0.4993,0.4993,0.4993,0,0.4393,0.4412,0.4449,0.4494,0.4525,0.4562,0.4601,0.4618,0.4669,0.4698,0.4743,0.4773,0.4833,0.4879,0.493,0.4961,0.4986,0.4991,0.4996,0.4986,0.4969,0.4978,0.4972,0.4991,0.4991,0.4991,0.4991,0.4991,0.4388,0.4411,0.4456,0.4497,0.4531,0.4566,0.4592,0.4628,0.4666,0.4717,0.4741,0.4786,0.4833,0.4904,0.4934,0.4971,0.4977,0.4984,0.4987,0.4988,0.4985,0.4962,0.498,0.498,0.4981,0.4981,0.4981,0,0.4392,0.4423,0.446,0.4513,0.4545,0.4564,0.4608,0.4634,0.4672,0.4714,0.4751,0.4803,0.4847,0.4894,0.4942,0.4963,0.4975,0.4974,0.4973,0.498,0.4977,0.4968,0.4963,0.4963,0.4963,0.4963,0.4963,0.4963,0.4398,0.4437,0.4461,0.4518,0.4549,0.4593,0.4616,0.4649,0.4682,0.4738,0.4775,0.4805,0.4849,0.49,0.4942,0.4955,0.4971,0.4967,0.4983,0.4979,0.498,0.4981,0.4973,0.497,0.497,0.4983,0.4983,0.4983]},{"header":{"parameterUnit":"m.s-1","parameterCategory":1,"la1":30.2991,"la2":30.254,"lo1":-89.0895,"lo2":-89.0444,"dy":0.0017,"dx":0.0017,"nx":28,"ny":28,"refTime":"2024-09-30T09:00:00:Z","depth":0,"parameterNumber":3,"parameterNumberName":"V-component_of_WINDS"},"data":[0,0,0,0,0,0,0,0,0,0,0,0,0,0,0,0,0,0,0,0,0,0,0,0,0,0,0,0,0,0,0,0,0,0,0,0,0,0,0,0,0,0,0,0,0,0,0,0,0,0,0,0,0,0,0,0,0,0,2.5225,2.5225,0,2.5255,2.5255,2.5255,2.5286,2.5286,2.5287,2.5287,2.5314,2.5315,2.5315,0,0,0,0,0,0,0,0,0,0,0,0,0,2.5189,2.519,2.5225,2.5225,2.5226,2.5255,2.5255,2.5255,2.5286,2.5286,2.5287,2.5287,2.5314,2.5315,2.5315,0,0,0,0,0,0,0,0,0,0,0,0,0,2.521,2.519,2.5225,2.5244,2.5246,2.5255,2.5255,2.5256,2.5286,2.5286,2.5287,2.5287,2.5314,2.5315,2.5315,2.5306,0,0,2.5317,2.5317,0,0,0,0,0,0,0,0,2.5209,2.5212,2.5241,2.5243,2.5245,2.5267,2.5253,2.5272,2.5285,2.527,2.5287,2.5288,2.5298,2.53,2.5304,2.5307,2.5308,2.5317,2.5317,2.5317,2.5317,0,0,0,0,0,0,0,2.5208,2.5211,2.5237,2.5241,2.5244,2.525,2.5254,2.5256,2.528,2.5272,2.5274,2.5277,2.5299,2.5303,2.5305,2.5308,2.5317,2.5317,2.5317,2.5318,2.5302,2.5302,0,0,0,0,0,0,2.5204,2.5209,2.5236,2.5237,2.5229,2.525,2.5254,2.5259,2.528,2.5284,2.5277,2.5279,2.5302,2.5304,2.5306,2.5294,2.5317,2.5318,2.5318,2.5303,2.5302,2.5301,0,0,0,0,0,0,2.5203,2.5206,2.5234,2.5224,2.5228,2.525,2.5256,2.526,2.5264,2.5284,2.5288,2.5277,2.5303,2.5305,2.5305,2.5296,2.5318,2.5318,2.5304,2.5303,2.5302,2.5272,0,0,0,0,0,0,2.5202,2.5206,2.5203,2.5224,2.5229,2.5234,2.5255,2.526,2.5265,2.5268,2.5285,2.5289,2.5303,2.5304,2.5306,2.5297,2.5319,2.5305,2.5303,2.5302,2.5274,2.5271,2.5267,0,0,0,0,0,2.5201,2.5194,2.5203,2.5206,2.5227,2.5234,2.5237,2.5254,2.5264,2.5261,2.5274,2.5288,2.5297,2.5304,2.5306,2.5297,2.5305,2.5304,2.5302,2.5276,2.5271,2.5267,0,0,0,0,0,0,2.5171,2.5197,2.5208,2.5208,2.5218,2.5239,2.5236,2.5249,2.5257,2.5259,2.528,2.5283,2.528,2.5289,2.5296,2.5288,2.5303,2.5302,2.5282,2.5278,2.5275,2.5272,2.5319,0,0,0,0,0,2.5165,2.517,2.5192,2.519,2.5194,2.5214,2.5218,2.5231,2.5242,2.5247,2.526,2.5269,2.5274,2.5277,2.5282,2.5276,2.5279,2.527,2.5267,2.5264,2.5262,2.5257,2.5253,2.5296,2.5296,2.5296,0,0,2.5152,2.5166,2.5168,2.5184,2.5194,2.5197,2.5218,2.5221,2.5223,2.5247,2.5248,2.5257,2.5269,2.5265,2.5264,2.5272,2.5251,2.5262,2.5259,2.5259,2.5255,2.5251,2.5247,2.5295,2.5295,2.5295,0,0,2.5129,2.5142,2.514,2.5149,2.5164,2.5177,2.5176,2.5195,2.5202,2.5203,2.522,2.5222,2.5231,2.5238,2.5242,2.522,2.5232,2.5221,2.5202,2.5197,2.5194,2.5191,2.5181,2.5177,2.522,2.5219,2.5219,0,2.5111,2.5117,2.5137,2.5139,2.5144,2.5167,2.5164,2.5172,2.5187,2.5189,2.5198,2.5208,2.5217,2.5214,2.5209,2.5212,2.5211,2.5219,2.5193,2.519,2.5187,2.5178,2.5175,2.5218,2.5218,2.5218,2.5218,0,2.5093,2.5097,2.5094,2.5108,2.5113,2.5112,2.5131,2.5133,2.5144,2.5156,2.5155,2.5167,2.5175,2.5175,2.5187,2.5173,2.5177,2.5189,2.5205,2.5181,2.5173,2.517,2.5216,2.5216,2.5217,2.5217,0,0,2.5054,2.5078,2.5076,2.5082,2.5099,2.5102,2.5101,2.5109,2.5109,2.5118,2.5117,2.5122,2.5133,2.5138,2.5151,2.5146,2.5125,2.5158,2.5159,2.515,2.5108,2.5098,2.5094,2.5133,2.5133,2.5132,2.5106,0,2.5033,2.5034,2.5051,2.5046,2.5049,2.5069,2.5068,2.5077,2.5087,2.509,2.51,2.5103,2.5118,2.5121,2.5118,2.5128,2.5116,2.513,2.513,2.513,2.5126,2.5089,2.5079,2.5054,2.5103,2.5103,2.5102,0,2.5009,2.5017,2.5013,2.5027,2.5029,2.5028,2.5035,2.5038,2.5048,2.5055,2.506,2.5074,2.5072,2.5087,2.5084,2.5093,2.5094,2.5098,2.5098,2.5098,2.5114,2.5087,2.5047,2.5042,2.5098,2.5098,2.5098,0,2.4979,2.4988,2.4986,2.4991,2.5008,2.5007,2.5014,2.5024,2.5027,2.5033,2.5035,2.504,2.5043,2.5045,2.5059,2.5069,2.5053,2.507,2.5058,2.5057,2.5053,2.5053,2.5011,2.5056,2.5056,2.5056,2.5056,0,2.4953,2.4949,2.4972,2.4971,2.4967,2.4985,2.498,2.4989,2.4997,2.4997,2.5015,2.5013,2.5032,2.5033,2.5043,2.5037,2.5039,2.5043,2.5046,2.5041,2.504,2.5041,2.5043,2.5055,2.5055,2.5055,2.5055,0,2.4918,2.4934,2.4933,2.4949,2.4953,2.4949,2.4962,2.4961,2.4971,2.497,2.4971,2.4987,2.4988,2.5002,2.5006,2.5013,2.5003,2.5009,2.4999,2.5001,2.4987,2.4987,2.4943,2.4937,2.4987,2.4986,2.4986,0,2.4901,2.4898,2.4914,2.4915,2.4921,2.4923,2.4926,2.4943,2.4945,2.4954,2.4951,2.4954,2.4956,2.4957,2.4968,2.497,2.4976,2.496,2.4977,2.4971,2.4974,2.4973,2.4972,2.4957,2.4956,2.4956,2.4955,0,2.4866,2.4874,2.4878,2.4883,2.4886,2.4891,2.4897,2.4897,2.4915,2.4916,2.4918,2.492,2.4923,2.4925,2.4929,2.4935,2.4947,2.495,2.4947,2.4941,2.4935,2.4936,2.4988,2.4951,2.4951,2.4952,2.4952,2.4952,2.4839,2.4836,2.4847,2.4849,2.4856,2.486,2.4859,2.4869,2.4871,2.4876,2.4885,2.4884,2.4892,2.4899,2.4903,2.4902,2.491,2.4906,2.4904,2.4903,2.4899,2.4936,2.4903,2.4903,2.4903,2.4903,2.4903,0,2.4804,2.4811,2.4814,2.4821,2.4823,2.4835,2.4842,2.4842,2.4841,2.4848,2.485,2.485,2.4851,2.4862,2.4863,2.486,2.4865,2.4859,2.4859,2.486,2.4893,2.4895,2.4855,2.4855,2.4855,2.4855,2.4855,2.4855,2.4786,2.4782,2.479,2.4789,2.4796,2.4796,2.4798,2.4802,2.4807,2.4806,2.4807,2.4814,2.4821,2.4824,2.4824,2.4827,2.4826,2.4818,2.4822,2.4853,2.4858,2.4862,2.4864,2.4818,2.4818,2.4789,2.4789,2.4789]}]]